Private Wetterstation Wechselburg
Wetterdaten: Samstag, 03.10.2009
Datum Zeit Temp. +2m Bodentemp. Temp.+5cm Temp. Wind Windchill X Diff Temp. Feuchte +2m Feuchte +5cm Sonnenschein Luftdruck Regen Wind Richtung Richtung Sonnenschein UV Taupunkt Windchill Windben
03.10.2009 00:00 10,3 C 12,8 C 9,9 C 10,0 C 9,4 C 0,0 C 82 % 85 % 0 % 1016,8 hPa 0,0 l/m 5,0 km/h (1 Bft) SW 225 0 min 0,0 UV-I 7,4 C 9,1 C 5,8 km/h (2 Bft)
03.10.2009 00:06 10,3 C 12,8 C 9,9 C 10,0 C 9,4 C 0,0 C 82 % 85 % 0 % 1016,8 hPa 0,0 l/m 4,5 km/h (1 Bft) S-SO 157 0 min 0,0 UV-I 7,4 C 9,4 C 5,5 km/h (1 Bft)
03.10.2009 00:07 10,3 C 12,8 C 9,9 C 10,0 C 9,4 C 0,0 C 82 % 85 % 0 % 1016,8 hPa 0,0 l/m 4,5 km/h (1 Bft) S-SO 157 0 min 0,0 UV-I 7,4 C 9,4 C 5,5 km/h (1 Bft)
03.10.2009 00:10 10,3 C 12,8 C 9,9 C 10,0 C 9,4 C 0,0 C 82 % 85 % 0 % 1016,8 hPa 0,0 l/m 4,5 km/h (1 Bft) S-SO 157 0 min 0,0 UV-I 7,4 C 9,4 C 5,5 km/h (1 Bft)
03.10.2009 00:15 10,3 C 12,8 C 9,9 C 10,1 C 9,6 C 0,0 C 82 % 85 % 0 % 1016,8 hPa 0,0 l/m 4,2 km/h (1 Bft) W-SW 247 0 min 0,0 UV-I 7,4 C 9,6 C 4,2 km/h (1 Bft)
03.10.2009 00:20 10,2 C 12,8 C 9,7 C 9,9 C 9,3 C 0,0 C 82 % 85 % 0 % 1016,8 hPa 0,0 l/m 3,1 km/h (1 Bft) SW 225 0 min 0,0 UV-I 7,3 C 9,3 C 3,2 km/h (1 Bft)
03.10.2009 00:25 10,2 C 12,8 C 9,7 C 9,8 C 9,1 C 0,0 C 82 % 85 % 0 % 1016,3 hPa 0,0 l/m 2,6 km/h (1 Bft) S-SW 202 0 min 0,0 UV-I 7,3 C 9,1 C 2,3 km/h (1 Bft)
03.10.2009 00:30 10,1 C 12,9 C 9,6 C 9,7 C 8,8 C 0,0 C 82 % 85 % 0 % 1016,3 hPa 0,0 l/m 2,9 km/h (1 Bft) SW 225 0 min 0,0 UV-I 7,2 C 8,8 C 2,9 km/h (1 Bft)
03.10.2009 00:35 10,0 C 12,8 C 9,6 C 9,6 C 8,7 C 0,0 C 83 % 86 % 0 % 1016,3 hPa 0,0 l/m 2,9 km/h (1 Bft) S 180 0 min 0,0 UV-I 7,2 C 8,7 C 4,8 km/h (1 Bft)
03.10.2009 00:40 10,0 C 12,8 C 9,5 C 9,5 C 8,6 C 0,0 C 83 % 86 % 0 % 1016,3 hPa 0,0 l/m 3,1 km/h (1 Bft) W-SW 247 0 min 0,0 UV-I 7,2 C 8,6 C 3,9 km/h (1 Bft)
03.10.2009 00:45 10,1 C 12,8 C 9,5 C 9,6 C 8,6 C 0,0 C 83 % 86 % 0 % 1016,5 hPa 0,0 l/m 2,6 km/h (1 Bft) SW 225 0 min 0,0 UV-I 7,3 C 8,6 C 3,2 km/h (1 Bft)
03.10.2009 00:50 10,0 C 12,9 C 9,5 C 9,5 C 8,4 C 0,0 C 83 % 86 % 0 % 1016,5 hPa 0,0 l/m 1,9 km/h (1 Bft) S-SO 157 0 min 0,0 UV-I 7,2 C 8,4 C 6,0 km/h (2 Bft)
03.10.2009 00:55 9,9 C 12,9 C 9,3 C 9,3 C 8,2 C 0,0 C 83 % 86 % 0 % 1016,5 hPa 0,0 l/m 1,8 km/h (1 Bft) W-SW 247 0 min 0,0 UV-I 7,2 C 8,2 C 4,3 km/h (1 Bft)
03.10.2009 01:00 9,9 C 12,9 C 9,3 C 9,3 C 8,2 C 0,0 C 83 % 87 % 0 % 1016,5 hPa 0,0 l/m 2,4 km/h (1 Bft) S 180 0 min 0,0 UV-I 7,2 C 8,2 C 8,0 km/h (2 Bft)
03.10.2009 01:10 9,8 C 12,9 C 9,3 C 9,3 C 8,2 C 0,0 C 83 % 87 % 0 % 1016,4 hPa 0,0 l/m 3,9 km/h (1 Bft) S 180 0 min 0,0 UV-I 7,1 C 8,2 C 5,5 km/h (1 Bft)
03.10.2009 01:15 9,9 C 12,9 C 9,2 C 9,3 C 8,0 C 0,0 C 83 % 87 % 0 % 1016,4 hPa 0,0 l/m 4,2 km/h (1 Bft) S 180 0 min 0,0 UV-I 7,2 C 8,0 C 3,2 km/h (1 Bft)
03.10.2009 01:20 9,8 C 12,9 C 9,1 C 9,3 C 8,2 C 0,0 C 83 % 87 % 0 % 1016,4 hPa 0,0 l/m 3,9 km/h (1 Bft) W-SW 247 0 min 0,0 UV-I 7,1 C 8,2 C 4,2 km/h (1 Bft)
03.10.2009 01:25 9,7 C 12,9 C 9,0 C 9,2 C 8,1 C 0,0 C 83 % 87 % 0 % 1016,7 hPa 0,0 l/m 4,0 km/h (1 Bft) SW 225 0 min 0,0 UV-I 7,0 C 8,1 C 4,7 km/h (1 Bft)
03.10.2009 01:30 9,7 C 12,8 C 9,0 C 9,2 C 8,3 C 0,0 C 83 % 87 % 0 % 1016,7 hPa 0,0 l/m 4,0 km/h (1 Bft) W-SW 247 0 min 0,0 UV-I 7,0 C 8,3 C 3,5 km/h (1 Bft)
03.10.2009 01:35 9,7 C 12,8 C 9,1 C 9,3 C 8,4 C 0,0 C 83 % 87 % 0 % 1016,7 hPa 0,0 l/m 3,9 km/h (1 Bft) W-SW 247 0 min 0,0 UV-I 7,0 C 8,4 C 4,3 km/h (1 Bft)
03.10.2009 01:40 9,7 C 12,8 C 9,1 C 9,3 C 8,6 C 0,0 C 84 % 87 % 0 % 1016,7 hPa 0,0 l/m 3,5 km/h (1 Bft) S 180 0 min 0,0 UV-I 7,1 C 8,6 C 5,3 km/h (1 Bft)
03.10.2009 01:45 9,7 C 12,8 C 9,0 C 9,3 C 8,6 C 0,0 C 84 % 88 % 0 % 1017,1 hPa 0,0 l/m 3,4 km/h (1 Bft) SW 225 0 min 0,0 UV-I 7,1 C 8,6 C 2,6 km/h (1 Bft)
03.10.2009 01:50 9,7 C 12,8 C 9,1 C 9,4 C 8,7 C 0,0 C 84 % 87 % 0 % 1017,1 hPa 0,0 l/m 3,5 km/h (1 Bft) S-SW 202 0 min 0,0 UV-I 7,1 C 8,7 C 3,2 km/h (1 Bft)
03.10.2009 01:55 9,7 C 12,8 C 9,1 C 9,4 C 8,7 C 0,0 C 84 % 88 % 0 % 1017,1 hPa 0,0 l/m 3,4 km/h (1 Bft) S-SW 202 0 min 0,0 UV-I 7,1 C 8,7 C 4,3 km/h (1 Bft)
03.10.2009 02:00 9,7 C 12,8 C 9,1 C 9,4 C 8,7 C 0,0 C 84 % 88 % 0 % 1017,1 hPa 0,0 l/m 3,2 km/h (1 Bft) SW 225 0 min 0,0 UV-I 7,1 C 8,7 C 3,1 km/h (1 Bft)
03.10.2009 02:10 9,6 C 12,9 C 9,1 C 9,3 C 8,7 C 0,0 C 84 % 88 % 0 % 1017,1 hPa 0,0 l/m 2,7 km/h (1 Bft) SW 225 0 min 0,0 UV-I 7,0 C 8,7 C 3,1 km/h (1 Bft)
03.10.2009 02:15 9,6 C 12,9 C 9,1 C 9,2 C 8,5 C 0,0 C 84 % 88 % 0 % 1017,1 hPa 0,0 l/m 1,6 km/h (1 Bft) S 180 0 min 0,0 UV-I 7,0 C 8,5 C 0,0 km/h (0 Bft)
03.10.2009 02:20 9,5 C 13,0 C 9,1 C 8,9 C 7,8 C 0,0 C 84 % 87 % 0 % 1017,1 hPa 0,0 l/m 0,3 km/h (0 Bft) SW 225 0 min 0,0 UV-I 6,9 C 7,8 C 2,6 km/h (1 Bft)
03.10.2009 02:25 9,5 C 13,0 C 9,0 C 8,8 C 7,5 C 0,0 C 84 % 88 % 0 % 1016,9 hPa 0,0 l/m 0,6 km/h (0 Bft) S 180 0 min 0,0 UV-I 6,9 C 7,5 C 2,4 km/h (1 Bft)
03.10.2009 02:30 9,4 C 13,1 C 8,9 C 8,7 C 7,2 C 0,0 C 84 % 87 % 0 % 1016,9 hPa 0,0 l/m 0,8 km/h (0 Bft) N-NW 337 0 min 0,0 UV-I 6,8 C 7,2 C 0,0 km/h (0 Bft)
03.10.2009 02:35 9,2 C 13,1 C 8,7 C 8,5 C 7,0 C 0,0 C 84 % 88 % 0 % 1016,9 hPa 0,0 l/m 0,3 km/h (0 Bft) O 90 0 min 0,0 UV-I 6,6 C 7,0 C 0,0 km/h (0 Bft)
03.10.2009 02:40 9,0 C 13,1 C 8,5 C 8,2 C 6,7 C 0,0 C 85 % 88 % 0 % 1016,9 hPa 0,0 l/m 0,0 km/h (0 Bft) O-NO 67 0 min 0,0 UV-I 6,6 C 6,7 C 0,0 km/h (0 Bft)
03.10.2009 02:45 8,9 C 13,1 C 8,5 C 8,1 C 6,6 C 0,0 C 85 % 88 % 0 % 1016,6 hPa 0,0 l/m 0,0 km/h (0 Bft) SO 135 0 min 0,0 UV-I 6,5 C 6,6 C 0,0 km/h (0 Bft)
03.10.2009 02:50 8,9 C 13,1 C 8,3 C 8,1 C 6,4 C 0,0 C 85 % 89 % 0 % 1016,6 hPa 0,0 l/m 0,0 km/h (0 Bft) SW 225 0 min 0,0 UV-I 6,5 C 6,4 C 0,0 km/h (0 Bft)
03.10.2009 02:55 8,8 C 13,1 C 8,3 C 8,0 C 6,3 C 0,0 C 85 % 88 % 0 % 1016,6 hPa 0,0 l/m 0,3 km/h (0 Bft) W-SW 247 0 min 0,0 UV-I 6,4 C 6,3 C 2,1 km/h (1 Bft)
03.10.2009 03:00 8,9 C 13,1 C 8,2 C 8,1 C 6,4 C 0,0 C 86 % 89 % 0 % 1016,6 hPa 0,0 l/m 0,8 km/h (0 Bft) SW 225 0 min 0,0 UV-I 6,7 C 6,4 C 2,9 km/h (1 Bft)
03.10.2009 03:10 8,7 C 13,1 C 8,1 C 7,9 C 6,3 C 0,0 C 86 % 89 % 0 % 1016,9 hPa 0,0 l/m 0,6 km/h (0 Bft) W 270 0 min 0,0 UV-I 6,5 C 6,3 C 0,0 km/h (0 Bft)
03.10.2009 03:15 8,5 C 13,2 C 8,0 C 7,8 C 6,3 C 0,0 C 85 % 89 % 0 % 1016,9 hPa 0,0 l/m 0,3 km/h (0 Bft) O-NO 67 0 min 0,0 UV-I 6,1 C 6,3 C 0,0 km/h (0 Bft)
03.10.2009 03:20 8,4 C 13,2 C 7,8 C 7,7 C 6,2 C 0,0 C 86 % 89 % 0 % 1016,9 hPa 0,0 l/m 0,0 km/h (0 Bft) S-SO 157 0 min 0,0 UV-I 6,2 C 6,2 C 0,0 km/h (0 Bft)
03.10.2009 03:25 8,3 C 13,2 C 7,9 C 7,6 C 6,1 C 0,0 C 86 % 89 % 0 % 1016,7 hPa 0,0 l/m 0,2 km/h (0 Bft) O 90 0 min 0,0 UV-I 6,1 C 6,1 C 0,0 km/h (0 Bft)
03.10.2009 03:30 8,3 C 13,2 C 7,7 C 7,5 C 6,0 C 0,0 C 87 % 90 % 0 % 1016,7 hPa 0,0 l/m 0,0 km/h (0 Bft) O-NO 67 0 min 0,0 UV-I 6,3 C 6,0 C 0,0 km/h (0 Bft)
03.10.2009 03:35 8,3 C 13,2 C 7,6 C 7,5 C 5,9 C 0,0 C 87 % 90 % 0 % 1016,7 hPa 0,0 l/m 0,0 km/h (0 Bft) O-NO 67 0 min 0,0 UV-I 6,3 C 5,9 C 0,0 km/h (0 Bft)
03.10.2009 03:40 8,2 C 13,2 C 7,7 C 7,4 C 5,9 C 0,0 C 87 % 90 % 0 % 1016,7 hPa 0,0 l/m 0,0 km/h (0 Bft) N-NO 22 0 min 0,0 UV-I 6,2 C 5,9 C 0,0 km/h (0 Bft)
03.10.2009 03:45 8,2 C 13,2 C 7,6 C 7,4 C 5,8 C 0,0 C 87 % 90 % 0 % 1016,6 hPa 0,0 l/m 0,0 km/h (0 Bft) O-NO 67 0 min 0,0 UV-I 6,2 C 5,8 C 0,0 km/h (0 Bft)
03.10.2009 03:50 8,3 C 13,2 C 7,5 C 7,5 C 5,8 C 0,0 C 87 % 90 % 0 % 1016,6 hPa 0,0 l/m 0,2 km/h (0 Bft) S 180 0 min 0,0 UV-I 6,3 C 5,8 C 2,1 km/h (1 Bft)
03.10.2009 03:55 8,3 C 13,2 C 7,5 C 7,5 C 5,8 C 0,0 C 87 % 90 % 0 % 1016,6 hPa 0,0 l/m 0,2 km/h (0 Bft) O 90 0 min 0,0 UV-I 6,3 C 5,8 C 0,0 km/h (0 Bft)
03.10.2009 04:00 8,2 C 13,2 C 7,4 C 7,4 C 5,9 C 0,0 C 87 % 90 % 0 % 1016,6 hPa 0,0 l/m 0,2 km/h (0 Bft) SO 135 0 min 0,0 UV-I 6,2 C 5,9 C 0,0 km/h (0 Bft)
03.10.2009 04:10 8,3 C 13,2 C 7,5 C 7,5 C 5,8 C 0,0 C 87 % 91 % 0 % 1016,4 hPa 0,0 l/m 0,0 km/h (0 Bft) S 180 0 min 0,0 UV-I 6,3 C 5,8 C 0,0 km/h (0 Bft)
03.10.2009 04:15 8,3 C 13,2 C 7,5 C 7,4 C 5,7 C 0,0 C 87 % 91 % 0 % 1016,4 hPa 0,0 l/m 0,0 km/h (0 Bft) NO 45 0 min 0,0 UV-I 6,3 C 5,7 C 0,0 km/h (0 Bft)
03.10.2009 04:20 8,1 C 13,2 C 7,5 C 7,3 C 5,7 C 0,0 C 87 % 91 % 0 % 1016,4 hPa 0,0 l/m 0,0 km/h (0 Bft) O-NO 67 0 min 0,0 UV-I 6,1 C 5,7 C 0,0 km/h (0 Bft)
03.10.2009 04:25 8,2 C 13,2 C 7,4 C 7,3 C 5,6 C 0,0 C 87 % 91 % 0 % 1016,2 hPa 0,0 l/m 0,0 km/h (0 Bft) O-SO 112 0 min 0,0 UV-I 6,2 C 5,6 C 0,0 km/h (0 Bft)
03.10.2009 04:30 8,1 C 13,1 C 7,3 C 7,2 C 5,5 C 0,0 C 87 % 91 % 0 % 1016,2 hPa 0,0 l/m 0,0 km/h (0 Bft) S-SO 157 0 min 0,0 UV-I 6,1 C 5,5 C 0,0 km/h (0 Bft)
03.10.2009 04:35 8,0 C 13,1 C 7,2 C 7,2 C 5,5 C 0,0 C 87 % 90 % 0 % 1016,2 hPa 0,0 l/m 0,2 km/h (0 Bft) NO 45 0 min 0,0 UV-I 6,0 C 5,5 C 0,0 km/h (0 Bft)
03.10.2009 04:40 8,1 C 13,1 C 7,3 C 7,3 C 5,6 C 0,0 C 87 % 91 % 0 % 1016,2 hPa 0,0 l/m 0,2 km/h (0 Bft) O-SO 112 0 min 0,0 UV-I 6,1 C 5,6 C 0,0 km/h (0 Bft)
03.10.2009 04:45 8,0 C 13,1 C 7,3 C 7,2 C 5,7 C 0,0 C 87 % 91 % 0 % 1016,1 hPa 0,0 l/m 0,2 km/h (0 Bft) O-NO 67 0 min 0,0 UV-I 6,0 C 5,7 C 0,0 km/h (0 Bft)
03.10.2009 04:50 8,1 C 13,1 C 7,3 C 7,3 C 5,6 C 0,0 C 87 % 91 % 0 % 1016,1 hPa 0,0 l/m 0,0 km/h (0 Bft) O-SO 112 0 min 0,0 UV-I 6,1 C 5,6 C 0,0 km/h (0 Bft)
03.10.2009 04:55 8,0 C 13,1 C 7,3 C 7,2 C 5,6 C 0,0 C 87 % 91 % 0 % 1016,1 hPa 0,0 l/m 0,0 km/h (0 Bft) S 180 0 min 0,0 UV-I 6,0 C 5,6 C 0,0 km/h (0 Bft)
03.10.2009 05:00 7,9 C 13,1 C 7,2 C 7,1 C 5,4 C 0,0 C 87 % 90 % 0 % 1016,1 hPa 0,0 l/m 0,0 km/h (0 Bft) O-NO 67 0 min 0,0 UV-I 5,9 C 5,4 C 0,0 km/h (0 Bft)
03.10.2009 05:10 7,9 C 13,1 C 7,0 C 7,1 C 5,4 C 0,0 C 87 % 91 % 0 % 1016,2 hPa 0,0 l/m 0,0 km/h (0 Bft) O 90 0 min 0,0 UV-I 5,9 C 5,4 C 0,0 km/h (0 Bft)
03.10.2009 05:15 7,7 C 13,1 C 6,9 C 6,9 C 5,3 C 0,0 C 87 % 91 % 0 % 1016,2 hPa 0,0 l/m 0,0 km/h (0 Bft) N-NO 22 0 min 0,0 UV-I 5,7 C 5,3 C 0,0 km/h (0 Bft)
03.10.2009 05:20 7,6 C 13,1 C 6,9 C 6,9 C 5,4 C 0,0 C 87 % 91 % 0 % 1016,2 hPa 0,0 l/m 0,0 km/h (0 Bft) NW 315 0 min 0,0 UV-I 5,6 C 5,4 C 0,0 km/h (0 Bft)
03.10.2009 05:25 7,6 C 13,1 C 7,0 C 6,9 C 5,4 C 0,0 C 87 % 91 % 0 % 1016,2 hPa 0,0 l/m 0,0 km/h (0 Bft) O-NO 67 0 min 0,0 UV-I 5,6 C 5,4 C 0,0 km/h (0 Bft)
03.10.2009 05:30 7,7 C 13,1 C 7,0 C 6,9 C 5,4 C 0,0 C 87 % 91 % 0 % 1016,2 hPa 0,0 l/m 0,0 km/h (0 Bft) S 180 0 min 0,0 UV-I 5,7 C 5,4 C 0,0 km/h (0 Bft)
03.10.2009 05:35 7,6 C 13,1 C 7,1 C 6,9 C 5,4 C 0,0 C 87 % 91 % 0 % 1016,2 hPa 0,0 l/m 0,0 km/h (0 Bft) S 180 0 min 0,0 UV-I 5,6 C 5,4 C 0,0 km/h (0 Bft)
03.10.2009 05:40 7,7 C 13,1 C 6,9 C 7,0 C 5,5 C 0,0 C 88 % 91 % 0 % 1016,2 hPa 0,0 l/m 0,0 km/h (0 Bft) SO 135 0 min 0,0 UV-I 5,8 C 5,5 C 0,0 km/h (0 Bft)
03.10.2009 05:45 7,6 C 13,1 C 7,1 C 6,9 C 5,6 C 0,0 C 88 % 92 % 0 % 1016,1 hPa 0,0 l/m 0,2 km/h (0 Bft) N-NO 22 0 min 0,0 UV-I 5,7 C 5,6 C 0,0 km/h (0 Bft)
03.10.2009 05:50 7,7 C 13,0 C 7,0 C 7,0 C 5,7 C 0,0 C 88 % 91 % 0 % 1016,1 hPa 0,0 l/m 0,3 km/h (0 Bft) S-SO 157 0 min 0,0 UV-I 5,8 C 5,7 C 1,8 km/h (1 Bft)
03.10.2009 05:55 7,7 C 13,1 C 7,1 C 7,0 C 5,7 C 0,0 C 88 % 91 % 0 % 1016,1 hPa 0,0 l/m 0,2 km/h (0 Bft) O-SO 112 0 min 0,0 UV-I 5,8 C 5,7 C 0,0 km/h (0 Bft)
03.10.2009 06:00 7,7 C 13,0 C 7,1 C 7,0 C 5,6 C 0,0 C 87 % 91 % 0 % 1016,1 hPa 0,0 l/m 0,2 km/h (0 Bft) S 180 0 min 0,0 UV-I 5,7 C 5,6 C 0,0 km/h (0 Bft)
03.10.2009 06:10 7,8 C 13,0 C 7,1 C 7,0 C 5,5 C 0,0 C 87 % 91 % 0 % 1015,8 hPa 0,0 l/m 0,2 km/h (0 Bft) O 90 0 min 0,0 UV-I 5,8 C 5,5 C 0,0 km/h (0 Bft)
03.10.2009 06:15 7,8 C 13,0 C 7,1 C 7,0 C 5,4 C 0,0 C 87 % 90 % 0 % 1015,8 hPa 0,0 l/m 0,2 km/h (0 Bft) O-SO 112 0 min 0,0 UV-I 5,8 C 5,4 C 0,0 km/h (0 Bft)
03.10.2009 06:20 7,7 C 13,0 C 7,1 C 6,9 C 5,4 C 0,0 C 87 % 90 % 0 % 1015,8 hPa 0,0 l/m 0,2 km/h (0 Bft) O-SO 112 0 min 0,0 UV-I 5,7 C 5,4 C 1,8 km/h (1 Bft)
03.10.2009 06:25 7,7 C 13,0 C 7,1 C 6,9 C 5,4 C 0,0 C 87 % 91 % 0 % 1015,7 hPa 0,0 l/m 0,0 km/h (0 Bft) O-SO 112 0 min 0,0 UV-I 5,7 C 5,4 C 0,0 km/h (0 Bft)
03.10.2009 06:30 7,7 C 13,0 C 7,0 C 6,9 C 5,4 C 0,0 C 87 % 91 % 0 % 1015,7 hPa 0,0 l/m 0,2 km/h (0 Bft) O-SO 112 0 min 0,0 UV-I 5,7 C 5,4 C 1,6 km/h (1 Bft)
03.10.2009 06:35 7,6 C 13,0 C 7,1 C 6,8 C 5,3 C 0,0 C 87 % 90 % 0 % 1015,7 hPa 0,0 l/m 0,2 km/h (0 Bft) S 180 0 min 0,0 UV-I 5,6 C 5,3 C 0,0 km/h (0 Bft)
03.10.2009 06:40 7,6 C 13,0 C 7,0 C 6,8 C 5,2 C 0,0 C 87 % 90 % 0 % 1015,7 hPa 0,0 l/m 0,0 km/h (0 Bft) N 360 0 min 0,0 UV-I 5,6 C 5,2 C 0,0 km/h (0 Bft)
03.10.2009 06:45 7,6 C 13,0 C 6,9 C 6,8 C 5,2 C 0,0 C 87 % 90 % 0 % 1015,6 hPa 0,0 l/m 0,2 km/h (0 Bft) W-SW 247 0 min 0,0 UV-I 5,6 C 5,2 C 0,0 km/h (0 Bft)
03.10.2009 06:50 7,5 C 13,0 C 7,0 C 6,7 C 5,2 C 0,0 C 87 % 90 % 0 % 1015,6 hPa 0,0 l/m 0,2 km/h (0 Bft) SO 135 0 min 0,0 UV-I 5,5 C 5,2 C 0,0 km/h (0 Bft)
03.10.2009 06:55 7,5 C 13,0 C 7,0 C 6,7 C 5,2 C 0,0 C 87 % 90 % 0 % 1015,6 hPa 0,0 l/m 0,0 km/h (0 Bft) N 360 0 min 0,0 UV-I 5,5 C 5,2 C 0,0 km/h (0 Bft)
03.10.2009 07:00 7,5 C 13,0 C 6,9 C 6,8 C 5,3 C 0,0 C 87 % 90 % 0 % 1015,6 hPa 0,0 l/m 0,0 km/h (0 Bft) O-NO 67 0 min 0,0 UV-I 5,5 C 5,3 C 0,0 km/h (0 Bft)
03.10.2009 07:10 7,4 C 13,0 C 7,0 C 6,8 C 5,6 C 0,0 C 87 % 91 % 0 % 1015,6 hPa 0,0 l/m 0,0 km/h (0 Bft) O-SO 112 0 min 0,0 UV-I 5,4 C 5,6 C 0,0 km/h (0 Bft)
03.10.2009 07:15 7,6 C 13,0 C 7,0 C 7,0 C 5,8 C 0,0 C 88 % 91 % 0 % 1015,6 hPa 0,0 l/m 0,0 km/h (0 Bft) O 90 0 min 0,0 UV-I 5,7 C 5,8 C 0,0 km/h (0 Bft)
03.10.2009 07:20 7,6 C 13,0 C 7,1 C 7,1 C 6,0 C 0,0 C 88 % 91 % 0 % 1015,6 hPa 0,0 l/m 0,0 km/h (0 Bft) O-NO 67 0 min 0,0 UV-I 5,7 C 6,0 C 0,0 km/h (0 Bft)
03.10.2009 07:25 7,6 C 12,9 C 7,1 C 7,1 C 6,1 C 0,0 C 88 % 91 % 0 % 1015,8 hPa 0,0 l/m 0,0 km/h (0 Bft) SW 225 0 min 0,0 UV-I 5,7 C 6,1 C 0,0 km/h (0 Bft)
03.10.2009 07:30 7,6 C 12,9 C 7,3 C 7,0 C 5,9 C 0,0 C 87 % 91 % 0 % 1015,8 hPa 0,0 l/m 0,0 km/h (0 Bft) O-NO 67 0 min 0,0 UV-I 5,6 C 5,9 C 0,0 km/h (0 Bft)
03.10.2009 07:35 7,6 C 12,9 C 7,2 C 7,1 C 6,0 C 0,0 C 88 % 91 % 0 % 1015,8 hPa 0,0 l/m 0,0 km/h (0 Bft) NO 45 0 min 0,0 UV-I 5,7 C 6,0 C 0,0 km/h (0 Bft)
03.10.2009 07:40 7,6 C 12,9 C 7,2 C 7,1 C 6,1 C 0,0 C 88 % 91 % 0 % 1015,8 hPa 0,0 l/m 0,0 km/h (0 Bft) NO 45 0 min 0,0 UV-I 5,7 C 6,1 C 0,0 km/h (0 Bft)
03.10.2009 07:45 7,7 C 12,9 C 7,2 C 7,1 C 6,0 C 0,0 C 88 % 91 % 0 % 1015,5 hPa 0,0 l/m 0,0 km/h (0 Bft) O-NO 67 0 min 0,0 UV-I 5,8 C 6,0 C 0,0 km/h (0 Bft)
03.10.2009 07:50 7,6 C 12,9 C 7,2 C 7,2 C 6,3 C 0,0 C 88 % 91 % 0 % 1015,5 hPa 0,0 l/m 0,0 km/h (0 Bft) NO 45 0 min 0,0 UV-I 5,7 C 6,3 C 0,0 km/h (0 Bft)
03.10.2009 07:55 7,7 C 12,9 C 7,3 C 7,3 C 6,5 C 0,0 C 88 % 91 % 0 % 1015,5 hPa 0,0 l/m 0,0 km/h (0 Bft) SW 225 0 min 0,0 UV-I 5,8 C 6,5 C 0,0 km/h (0 Bft)
03.10.2009 08:00 7,9 C 12,7 C 7,3 C 7,5 C 6,7 C 0,0 C 88 % 91 % 0 % 1015,5 hPa 0,0 l/m 0,0 km/h (0 Bft) NW 315 0 min 0,0 UV-I 6,0 C 6,7 C 0,0 km/h (0 Bft)
03.10.2009 08:10 8,0 C 12,6 C 7,7 C 7,7 C 7,2 C 0,0 C 88 % 91 % 0 % 1015,4 hPa 0,0 l/m 0,5 km/h (0 Bft) S 180 0 min 0,0 UV-I 6,1 C 7,2 C 0,0 km/h (0 Bft)
03.10.2009 08:15 8,1 C 12,6 C 7,7 C 7,8 C 7,3 C 0,0 C 88 % 91 % 0 % 1015,4 hPa 0,0 l/m 0,8 km/h (0 Bft) O-SO 112 0 min 0,0 UV-I 6,2 C 7,3 C 0,0 km/h (0 Bft)
03.10.2009 08:20 8,3 C 12,4 C 8,0 C 8,1 C 7,6 C 0,0 C 88 % 91 % 0 % 1015,4 hPa 0,0 l/m 1,1 km/h (1 Bft) W 270 0 min 0,0 UV-I 6,4 C 7,6 C 3,4 km/h (1 Bft)
03.10.2009 08:25 8,5 C 12,4 C 8,1 C 8,2 C 7,7 C 0,0 C 87 % 91 % 0 % 1015,2 hPa 0,0 l/m 1,0 km/h (0 Bft) SO 135 0 min 0,0 UV-I 6,5 C 7,7 C 3,1 km/h (1 Bft)
03.10.2009 08:30 8,5 C 12,4 C 8,3 C 8,3 C 7,9 C 0,0 C 87 % 90 % 0 % 1015,2 hPa 0,0 l/m 1,3 km/h (1 Bft) S-SW 202 0 min 0,0 UV-I 6,5 C 7,9 C 6,1 km/h (2 Bft)
03.10.2009 08:35 8,7 C 12,4 C 8,5 C 8,5 C 8,1 C 0,0 C 87 % 89 % 0 % 1015,2 hPa 0,0 l/m 1,8 km/h (1 Bft) O-SO 112 0 min 0,0 UV-I 6,7 C 8,1 C 5,1 km/h (1 Bft)
03.10.2009 08:40 8,7 C 12,4 C 8,5 C 8,6 C 8,3 C 0,0 C 86 % 89 % 0 % 1015,2 hPa 0,0 l/m 2,4 km/h (1 Bft) N-NO 22 0 min 0,0 UV-I 6,5 C 8,3 C 11,4 km/h (2 Bft)
03.10.2009 08:45 8,8 C 12,4 C 8,7 C 8,7 C 8,4 C 0,0 C 86 % 89 % 0 % 1015,1 hPa 0,0 l/m 2,1 km/h (1 Bft) O-NO 67 0 min 0,0 UV-I 6,6 C 8,4 C 0,0 km/h (0 Bft)
03.10.2009 08:50 8,9 C 12,4 C 8,8 C 8,8 C 8,6 C 0,0 C 86 % 88 % 0 % 1015,1 hPa 0,0 l/m 2,1 km/h (1 Bft) S-SW 202 0 min 0,0 UV-I 6,7 C 8,6 C 1,8 km/h (1 Bft)
03.10.2009 08:55 9,0 C 12,3 C 8,8 C 8,9 C 8,8 C 0,0 C 86 % 88 % 0 % 1015,1 hPa 0,0 l/m 2,6 km/h (1 Bft) S-SO 157 0 min 0,0 UV-I 6,8 C 8,8 C 4,2 km/h (1 Bft)
03.10.2009 09:00 9,1 C 12,3 C 9,1 C 9,1 C 9,0 C 0,0 C 85 % 87 % 0 % 1015,1 hPa 0,0 l/m 3,1 km/h (1 Bft) S 180 0 min 0,0 UV-I 6,7 C 9,0 C 11,7 km/h (2 Bft)
03.10.2009 09:10 9,2 C 12,3 C 9,2 C 9,4 C 9,4 C 0,2 C 85 % 87 % 5 % 1015,0 hPa 0,0 l/m 2,9 km/h (1 Bft) S-SW 202 0 min 0,0 UV-I 6,8 C 9,4 C 12,6 km/h (3 Bft)
03.10.2009 09:15 9,3 C 12,3 C 9,3 C 9,6 C 9,6 C 0,3 C 85 % 87 % 8 % 1015,0 hPa 0,0 l/m 1,9 km/h (1 Bft) SO 135 0 min 0,1 UV-I 6,9 C 9,6 C 3,5 km/h (1 Bft)
03.10.2009 09:20 9,4 C 12,3 C 9,2 C 9,7 C 9,7 C 0,3 C 85 % 87 % 8 % 1015,0 hPa 0,0 l/m 2,3 km/h (1 Bft) S 180 0 min 0,1 UV-I 7,0 C 9,7 C 4,7 km/h (1 Bft)
03.10.2009 09:25 9,5 C 12,3 C 9,3 C 9,9 C 9,9 C 0,4 C 84 % 87 % 11 % 1015,4 hPa 0,0 l/m 1,8 km/h (1 Bft) S 180 0 min 0,1 UV-I 6,9 C 9,9 C 1,8 km/h (1 Bft)
03.10.2009 09:30 9,5 C 12,3 C 9,4 C 10,3 C 10,3 C 0,8 C 84 % 87 % 21 % 1015,4 hPa 0,0 l/m 2,1 km/h (1 Bft) O-SO 112 0 min 0,1 UV-I 6,9 C 10,3 C 3,9 km/h (1 Bft)
03.10.2009 09:35 9,6 C 12,3 C 9,6 C 10,5 C 10,5 C 0,9 C 84 % 87 % 24 % 1015,4 hPa 0,0 l/m 1,9 km/h (1 Bft) W-SW 247 0 min 0,2 UV-I 7,0 C 10,5 C 3,1 km/h (1 Bft)
03.10.2009 09:40 9,9 C 12,3 C 9,8 C 10,9 C 10,9 C 1,0 C 84 % 86 % 26 % 1015,4 hPa 0,0 l/m 1,9 km/h (1 Bft) SW 225 0 min 0,2 UV-I 7,3 C 10,9 C 3,7 km/h (1 Bft)
03.10.2009 09:45 9,9 C 12,2 C 9,9 C 10,9 C 10,9 C 1,0 C 83 % 85 % 26 % 1015,2 hPa 0,0 l/m 2,7 km/h (1 Bft) S 180 0 min 0,2 UV-I 7,2 C 10,9 C 2,6 km/h (1 Bft)
03.10.2009 09:50 10,0 C 12,2 C 10,0 C 11,1 C 11,1 C 1,1 C 82 % 85 % 29 % 1015,2 hPa 0,0 l/m 3,5 km/h (1 Bft) O-SO 112 0 min 0,2 UV-I 7,1 C 11,1 C 4,8 km/h (1 Bft)
03.10.2009 09:55 10,0 C 12,2 C 10,1 C 11,1 C 11,1 C 1,1 C 82 % 85 % 29 % 1015,2 hPa 0,0 l/m 3,2 km/h (1 Bft) S 180 0 min 0,2 UV-I 7,1 C 11,1 C 3,5 km/h (1 Bft)
03.10.2009 10:00 10,2 C 12,2 C 10,2 C 11,2 C 11,2 C 1,0 C 82 % 85 % 26 % 1015,2 hPa 0,0 l/m 3,2 km/h (1 Bft) SW 225 0 min 0,3 UV-I 7,3 C 11,2 C 7,9 km/h (2 Bft)
03.10.2009 10:10 10,4 C 12,2 C 10,4 C 11,5 C 11,5 C 1,1 C 81 % 84 % 29 % 1014,7 hPa 0,0 l/m 2,9 km/h (1 Bft) SO 135 0 min 0,4 UV-I 7,3 C 11,5 C 6,0 km/h (2 Bft)
03.10.2009 10:15 10,7 C 12,2 C 10,5 C 11,7 C 11,7 C 1,0 C 81 % 84 % 26 % 1014,7 hPa 0,0 l/m 3,1 km/h (1 Bft) SO 135 0 min 0,4 UV-I 7,6 C 11,7 C 0,0 km/h (0 Bft)
03.10.2009 10:20 10,8 C 12,2 C 10,7 C 12,0 C 12,0 C 1,2 C 80 % 82 % 32 % 1014,7 hPa 0,0 l/m 3,7 km/h (1 Bft) S-SW 202 0 min 0,4 UV-I 7,5 C 12,0 C 7,6 km/h (2 Bft)
03.10.2009 10:25 10,8 C 12,2 C 10,9 C 12,2 C 12,2 C 1,4 C 79 % 81 % 37 % 1015,2 hPa 0,0 l/m 4,2 km/h (1 Bft) S 180 0 min 0,4 UV-I 7,3 C 12,2 C 8,7 km/h (2 Bft)
03.10.2009 10:30 11,0 C 12,2 C 11,0 C 12,3 C 12,3 C 1,3 C 79 % 81 % 34 % 1015,2 hPa 0,0 l/m 5,1 km/h (1 Bft) S 180 0 min 0,5 UV-I 7,5 C 12,3 C 13,2 km/h (3 Bft)
03.10.2009 10:35 11,1 C 12,2 C 11,1 C 12,4 C 12,4 C 1,3 C 78 % 80 % 34 % 1015,2 hPa 0,0 l/m 4,5 km/h (1 Bft) SW 225 0 min 0,5 UV-I 7,4 C 12,4 C 11,7 km/h (2 Bft)
03.10.2009 10:40 11,3 C 12,2 C 11,1 C 12,5 C 12,5 C 1,2 C 79 % 81 % 32 % 1015,2 hPa 0,0 l/m 4,5 km/h (1 Bft) O-NO 67 0 min 0,5 UV-I 7,8 C 12,5 C 18,2 km/h (3 Bft)
03.10.2009 10:45 11,3 C 12,2 C 11,2 C 12,5 C 12,5 C 1,2 C 78 % 80 % 32 % 1014,5 hPa 0,0 l/m 4,5 km/h (1 Bft) NW 315 0 min 0,6 UV-I 7,6 C 12,5 C 3,9 km/h (1 Bft)
03.10.2009 10:50 11,6 C 12,2 C 11,5 C 12,7 C 12,7 C 1,1 C 77 % 80 % 29 % 1014,5 hPa 0,0 l/m 3,7 km/h (1 Bft) S-SO 157 0 min 0,6 UV-I 7,7 C 12,7 C 5,3 km/h (1 Bft)
03.10.2009 10:55 11,6 C 12,2 C 11,5 C 12,9 C 12,9 C 1,3 C 77 % 80 % 34 % 1014,5 hPa 0,0 l/m 4,2 km/h (1 Bft) W-SW 247 0 min 0,6 UV-I 7,7 C 12,9 C 7,4 km/h (2 Bft)
03.10.2009 11:00 11,9 C 12,2 C 11,7 C 13,3 C 13,3 C 1,4 C 77 % 79 % 37 % 1014,5 hPa 0,0 l/m 5,6 km/h (1 Bft) S-SO 157 0 min 0,7 UV-I 8,0 C 13,3 C 10,5 km/h (2 Bft)
03.10.2009 11:10 12,1 C 12,2 C 12,0 C 13,9 C 13,9 C 1,8 C 77 % 79 % 47 % 1013,9 hPa 0,0 l/m 5,3 km/h (1 Bft) SW 225 0 min 0,8 UV-I 8,2 C 13,9 C 4,5 km/h (1 Bft)
03.10.2009 11:15 12,1 C 12,3 C 12,1 C 14,1 C 14,1 C 2,0 C 77 % 79 % 53 % 1013,9 hPa 0,0 l/m 4,3 km/h (1 Bft) S 180 0 min 0,8 UV-I 8,2 C 14,1 C 12,6 km/h (3 Bft)
03.10.2009 11:20 12,3 C 12,3 C 12,3 C 14,3 C 14,3 C 2,0 C 76 % 78 % 53 % 1013,9 hPa 0,0 l/m 5,5 km/h (1 Bft) S 180 0 min 0,8 UV-I 8,2 C 14,3 C 5,1 km/h (1 Bft)
03.10.2009 11:25 12,3 C 12,3 C 12,3 C 14,1 C 13,9 C 1,8 C 75 % 77 % 47 % 1013,2 hPa 0,0 l/m 8,4 km/h (2 Bft) SO 135 0 min 0,8 UV-I 8,0 C 13,9 C 11,4 km/h (2 Bft)
03.10.2009 11:30 12,4 C 12,3 C 12,3 C 14,1 C 14,1 C 1,7 C 76 % 78 % 45 % 1013,2 hPa 0,0 l/m 7,2 km/h (2 Bft) SO 135 0 min 0,9 UV-I 8,3 C 14,1 C 22,4 km/h (4 Bft)
03.10.2009 11:35 12,4 C 12,3 C 12,4 C 14,4 C 14,4 C 2,0 C 75 % 77 % 53 % 1013,2 hPa 0,0 l/m 5,3 km/h (1 Bft) W-SW 247 0 min 0,9 UV-I 8,1 C 14,4 C 12,1 km/h (2 Bft)
03.10.2009 11:40 12,6 C 12,3 C 12,5 C 14,4 C 14,4 C 1,8 C 75 % 76 % 47 % 1013,2 hPa 0,0 l/m 5,1 km/h (1 Bft) W 270 0 min 0,9 UV-I 8,3 C 14,4 C 6,3 km/h (2 Bft)
03.10.2009 11:45 12,6 C 12,3 C 12,5 C 14,4 C 14,4 C 1,8 C 75 % 77 % 47 % 1013,3 hPa 0,0 l/m 5,3 km/h (1 Bft) O 90 0 min 0,9 UV-I 8,3 C 14,4 C 0,0 km/h (0 Bft)
03.10.2009 11:50 12,8 C 12,3 C 12,7 C 14,7 C 14,7 C 1,9 C 75 % 77 % 50 % 1013,3 hPa 0,0 l/m 6,0 km/h (2 Bft) O-NO 67 0 min 1,0 UV-I 8,5 C 14,7 C 8,4 km/h (2 Bft)
03.10.2009 11:55 12,8 C 12,3 C 12,8 C 14,9 C 14,9 C 2,1 C 74 % 76 % 55 % 1013,3 hPa 0,0 l/m 6,0 km/h (2 Bft) O-SO 112 0 min 1,0 UV-I 8,3 C 14,9 C 1,6 km/h (1 Bft)
03.10.2009 12:00 13,1 C 12,3 C 12,9 C 15,2 C 15,2 C 2,1 C 73 % 75 % 55 % 1013,3 hPa 0,0 l/m 5,5 km/h (1 Bft) S 180 0 min 1,0 UV-I 8,4 C 15,2 C 5,3 km/h (1 Bft)
03.10.2009 12:10 13,2 C 12,2 C 13,1 C 15,2 C 15,2 C 2,0 C 73 % 76 % 53 % 1013,0 hPa 0,0 l/m 7,9 km/h (2 Bft) W-SW 247 0 min 1,0 UV-I 8,5 C 15,2 C 14,3 km/h (3 Bft)
03.10.2009 12:15 13,3 C 12,2 C 13,2 C 15,2 C 15,2 C 1,9 C 73 % 75 % 50 % 1013,0 hPa 0,0 l/m 8,4 km/h (2 Bft) S 180 0 min 1,1 UV-I 8,6 C 15,2 C 6,4 km/h (2 Bft)
03.10.2009 12:20 13,2 C 12,2 C 13,2 C 15,2 C 15,2 C 2,0 C 74 % 76 % 53 % 1013,0 hPa 0,0 l/m 8,0 km/h (2 Bft) S 180 0 min 1,0 UV-I 8,7 C 15,2 C 8,2 km/h (2 Bft)
03.10.2009 12:25 13,2 C 12,3 C 13,3 C 15,2 C 15,2 C 2,0 C 74 % 76 % 53 % 1013,1 hPa 0,0 l/m 7,2 km/h (2 Bft) SO 135 0 min 0,9 UV-I 8,7 C 15,2 C 5,8 km/h (2 Bft)
03.10.2009 12:30 13,3 C 12,3 C 13,3 C 15,1 C 15,1 C 1,8 C 73 % 75 % 47 % 1013,1 hPa 0,0 l/m 6,4 km/h (2 Bft) S 180 0 min 0,9 UV-I 8,6 C 15,1 C 12,9 km/h (3 Bft)
03.10.2009 12:35 13,5 C 12,3 C 13,5 C 15,3 C 15,3 C 1,8 C 72 % 73 % 47 % 1013,1 hPa 0,0 l/m 6,4 km/h (2 Bft) SW 225 0 min 1,1 UV-I 8,6 C 15,3 C 14,5 km/h (3 Bft)
03.10.2009 12:40 13,5 C 12,3 C 13,5 C 15,7 C 15,7 C 2,2 C 71 % 73 % 58 % 1013,1 hPa 0,0 l/m 6,6 km/h (2 Bft) W-SW 247 0 min 1,1 UV-I 8,3 C 15,7 C 13,5 km/h (3 Bft)
03.10.2009 12:45 13,5 C 12,3 C 13,5 C 15,6 C 15,6 C 2,1 C 71 % 73 % 55 % 1012,9 hPa 0,0 l/m 7,1 km/h (2 Bft) S-SO 157 0 min 1,0 UV-I 8,3 C 15,6 C 9,5 km/h (2 Bft)
03.10.2009 12:50 13,7 C 12,3 C 13,5 C 15,5 C 15,5 C 1,8 C 71 % 73 % 47 % 1012,9 hPa 0,0 l/m 7,1 km/h (2 Bft) NO 45 0 min 1,0 UV-I 8,5 C 15,5 C 12,6 km/h (3 Bft)
03.10.2009 12:55 13,6 C 12,3 C 13,6 C 15,5 C 15,5 C 1,9 C 71 % 73 % 50 % 1012,9 hPa 0,0 l/m 7,4 km/h (2 Bft) S-SW 202 0 min 1,1 UV-I 8,4 C 15,5 C 17,5 km/h (3 Bft)
03.10.2009 13:00 13,7 C 12,3 C 13,6 C 15,8 C 15,8 C 2,1 C 71 % 73 % 55 % 1012,9 hPa 0,0 l/m 7,4 km/h (2 Bft) S 180 0 min 1,2 UV-I 8,5 C 15,8 C 17,5 km/h (3 Bft)
03.10.2009 13:10 14,0 C 12,3 C 13,9 C 16,2 C 16,2 C 2,2 C 71 % 74 % 58 % 1012,8 hPa 0,0 l/m 6,4 km/h (2 Bft) SW 225 0 min 1,2 UV-I 8,8 C 16,2 C 12,1 km/h (2 Bft)
03.10.2009 13:15 14,1 C 12,3 C 14,0 C 16,5 C 16,5 C 2,4 C 70 % 72 % 63 % 1012,8 hPa 0,0 l/m 5,8 km/h (2 Bft) S 180 0 min 1,1 UV-I 8,7 C 16,5 C 10,8 km/h (2 Bft)
03.10.2009 13:20 14,0 C 12,4 C 14,0 C 16,6 C 16,6 C 2,6 C 69 % 71 % 68 % 1012,8 hPa 0,0 l/m 6,1 km/h (2 Bft) S-SO 157 0 min 1,1 UV-I 8,4 C 16,6 C 16,1 km/h (3 Bft)
03.10.2009 13:25 14,1 C 12,4 C 14,0 C 16,6 C 16,6 C 2,5 C 68 % 69 % 66 % 1012,1 hPa 0,0 l/m 6,6 km/h (2 Bft) W-SW 247 0 min 1,1 UV-I 8,3 C 16,6 C 6,9 km/h (2 Bft)
03.10.2009 13:30 14,2 C 12,4 C 14,2 C 16,5 C 16,5 C 2,3 C 68 % 71 % 61 % 1012,1 hPa 0,0 l/m 6,4 km/h (2 Bft) SO 135 0 min 1,1 UV-I 8,4 C 16,5 C 22,9 km/h (4 Bft)
03.10.2009 13:35 14,2 C 12,4 C 14,2 C 16,5 C 16,5 C 2,3 C 68 % 70 % 61 % 1012,1 hPa 0,0 l/m 6,9 km/h (2 Bft) S-SW 202 0 min 1,1 UV-I 8,4 C 16,5 C 8,4 km/h (2 Bft)
03.10.2009 13:40 14,3 C 12,4 C 14,3 C 16,7 C 16,7 C 2,4 C 67 % 69 % 63 % 1012,1 hPa 0,0 l/m 7,2 km/h (2 Bft) W-SW 247 0 min 1,1 UV-I 8,3 C 16,7 C 16,9 km/h (3 Bft)
03.10.2009 13:45 14,4 C 12,4 C 14,4 C 16,6 C 16,6 C 2,2 C 68 % 70 % 58 % 1012,2 hPa 0,0 l/m 8,9 km/h (2 Bft) S 180 0 min 1,1 UV-I 8,6 C 16,6 C 14,3 km/h (3 Bft)
03.10.2009 13:50 14,5 C 12,4 C 14,5 C 16,9 C 16,9 C 2,4 C 68 % 70 % 63 % 1012,2 hPa 0,0 l/m 8,4 km/h (2 Bft) SW 225 0 min 1,1 UV-I 8,7 C 16,9 C 12,4 km/h (3 Bft)
03.10.2009 13:55 14,5 C 12,4 C 14,5 C 17,4 C 17,4 C 2,9 C 69 % 70 % 76 % 1012,2 hPa 0,0 l/m 7,1 km/h (2 Bft) O-NO 67 0 min 1,1 UV-I 8,9 C 17,4 C 6,4 km/h (2 Bft)
03.10.2009 14:00 14,7 C 12,5 C 14,7 C 17,9 C 17,9 C 3,2 C 67 % 69 % 84 % 1012,2 hPa 0,0 l/m 6,0 km/h (2 Bft) S 180 0 min 1,1 UV-I 8,6 C 17,9 C 3,4 km/h (1 Bft)
03.10.2009 14:10 14,9 C 12,5 C 14,9 C 18,3 C 18,3 C 3,4 C 67 % 69 % 89 % 1012,3 hPa 0,0 l/m 6,4 km/h (2 Bft) NW 315 10 min 1,1 UV-I 8,8 C 18,3 C 3,2 km/h (1 Bft)
03.10.2009 14:15 15,0 C 12,5 C 15,1 C 18,9 C 18,9 C 3,9 C 67 % 68 % 100 % 1012,3 hPa 0,0 l/m 5,8 km/h (2 Bft) W-NW 292 5 min 1,0 UV-I 8,9 C 18,9 C 5,5 km/h (1 Bft)
03.10.2009 14:20 15,1 C 12,5 C 15,2 C 19,0 C 19,0 C 3,9 C 66 % 68 % 100 % 1012,3 hPa 0,0 l/m 5,3 km/h (1 Bft) S 180 5 min 1,0 UV-I 8,8 C 19,0 C 15,4 km/h (3 Bft)
03.10.2009 14:25 15,2 C 12,5 C 15,2 C 18,6 C 18,6 C 3,4 C 65 % 67 % 89 % 1011,4 hPa 0,0 l/m 6,0 km/h (2 Bft) SO 135 5 min 1,0 UV-I 8,7 C 18,6 C 10,1 km/h (2 Bft)
03.10.2009 14:30 15,2 C 12,5 C 15,3 C 18,6 C 18,6 C 3,4 C 65 % 67 % 89 % 1011,4 hPa 0,0 l/m 7,4 km/h (2 Bft) NW 315 5 min 0,9 UV-I 8,7 C 18,6 C 8,0 km/h (2 Bft)
03.10.2009 14:35 15,2 C 12,5 C 15,5 C 18,8 C 18,8 C 3,6 C 65 % 66 % 95 % 1011,4 hPa 0,0 l/m 8,7 km/h (2 Bft) W-SW 247 5 min 0,9 UV-I 8,7 C 18,8 C 17,5 km/h (3 Bft)
03.10.2009 14:40 15,3 C 12,6 C 15,6 C 18,9 C 18,9 C 3,6 C 65 % 66 % 95 % 1011,4 hPa 0,0 l/m 7,4 km/h (2 Bft) S-SO 157 5 min 0,9 UV-I 8,8 C 18,9 C 2,7 km/h (1 Bft)
03.10.2009 14:45 15,4 C 12,6 C 15,9 C 19,3 C 19,3 C 3,9 C 66 % 67 % 100 % 1011,1 hPa 0,0 l/m 7,1 km/h (2 Bft) S 180 5 min 0,9 UV-I 9,1 C 19,3 C 10,9 km/h (2 Bft)
03.10.2009 14:50 15,6 C 12,6 C 16,1 C 19,5 C 19,5 C 3,9 C 64 % 63 % 100 % 1011,1 hPa 0,0 l/m 9,0 km/h (2 Bft) W-SW 247 5 min 0,9 UV-I 8,8 C 19,5 C 24,9 km/h (4 Bft)
03.10.2009 14:55 15,6 C 12,6 C 16,3 C 19,8 C 19,8 C 4,2 C 64 % 64 % 100 % 1011,1 hPa 0,0 l/m 9,2 km/h (2 Bft) S 180 5 min 0,9 UV-I 8,8 C 19,8 C 10,3 km/h (2 Bft)
03.10.2009 15:00 15,6 C 12,6 C 16,5 C 20,1 C 20,1 C 4,5 C 63 % 63 % 100 % 1011,1 hPa 0,0 l/m 6,1 km/h (2 Bft) SO 135 5 min 0,8 UV-I 8,6 C 20,1 C 7,7 km/h (2 Bft)
03.10.2009 15:10 15,8 C 12,7 C 17,1 C 20,2 C 20,2 C 4,4 C 62 % 61 % 100 % 1010,9 hPa 0,0 l/m 6,6 km/h (2 Bft) S 180 10 min 0,8 UV-I 8,5 C 20,2 C 14,8 km/h (3 Bft)
03.10.2009 15:15 15,8 C 12,7 C 17,2 C 19,8 C 19,8 C 4,0 C 62 % 60 % 100 % 1010,9 hPa 0,0 l/m 9,0 km/h (2 Bft) NW 315 5 min 0,9 UV-I 8,5 C 19,8 C 10,0 km/h (2 Bft)
03.10.2009 15:20 15,8 C 12,7 C 17,3 C 19,3 C 19,3 C 3,5 C 61 % 59 % 92 % 1010,9 hPa 0,0 l/m 10,8 km/h (2 Bft) W-SW 247 5 min 0,9 UV-I 8,3 C 19,3 C 29,0 km/h (5 Bft)
03.10.2009 15:25 15,9 C 12,7 C 17,4 C 19,1 C 19,1 C 3,2 C 61 % 59 % 84 % 1010,9 hPa 0,0 l/m 9,2 km/h (2 Bft) N-NW 337 0 min 0,9 UV-I 8,4 C 19,1 C 2,9 km/h (1 Bft)
03.10.2009 15:30 15,9 C 12,7 C 17,6 C 19,4 C 19,4 C 3,5 C 61 % 59 % 92 % 1010,9 hPa 0,0 l/m 8,9 km/h (2 Bft) S 180 5 min 0,9 UV-I 8,4 C 19,4 C 12,2 km/h (2 Bft)
03.10.2009 15:35 15,9 C 12,7 C 18,0 C 19,5 C 19,5 C 3,6 C 62 % 58 % 95 % 1010,9 hPa 0,0 l/m 9,7 km/h (2 Bft) S 180 5 min 0,8 UV-I 8,6 C 19,5 C 19,2 km/h (3 Bft)
03.10.2009 15:40 16,0 C 12,7 C 18,1 C 19,3 C 19,3 C 3,3 C 61 % 58 % 87 % 1010,9 hPa 0,0 l/m 11,1 km/h (2 Bft) W-SW 247 5 min 0,8 UV-I 8,5 C 19,3 C 14,8 km/h (3 Bft)
03.10.2009 15:45 15,9 C 12,7 C 18,1 C 19,1 C 19,1 C 3,2 C 61 % 58 % 84 % 1010,9 hPa 0,0 l/m 11,6 km/h (2 Bft) S 180 0 min 0,7 UV-I 8,4 C 19,1 C 18,8 km/h (3 Bft)
03.10.2009 15:50 16,0 C 12,8 C 17,8 C 18,8 C 18,8 C 2,8 C 62 % 58 % 74 % 1010,9 hPa 0,0 l/m 12,9 km/h (3 Bft) S 180 0 min 0,6 UV-I 8,7 C 18,8 C 10,0 km/h (2 Bft)
03.10.2009 15:55 16,0 C 12,8 C 17,7 C 18,9 C 18,9 C 2,9 C 61 % 58 % 76 % 1010,9 hPa 0,0 l/m 11,9 km/h (2 Bft) S 180 0 min 0,6 UV-I 8,5 C 18,9 C 21,1 km/h (4 Bft)
03.10.2009 16:00 16,0 C 12,8 C 17,6 C 18,6 C 18,6 C 2,6 C 62 % 58 % 68 % 1010,9 hPa 0,0 l/m 11,7 km/h (2 Bft) SW 225 0 min 0,5 UV-I 8,7 C 18,6 C 12,2 km/h (2 Bft)
03.10.2009 16:10 16,0 C 12,8 C 17,2 C 18,1 C 18,1 C 2,1 C 62 % 59 % 55 % 1010,9 hPa 0,0 l/m 8,9 km/h (2 Bft) W 270 0 min 0,4 UV-I 8,7 C 18,1 C 5,3 km/h (1 Bft)
03.10.2009 16:15 16,0 C 12,8 C 17,1 C 18,2 C 18,2 C 2,2 C 62 % 61 % 58 % 1010,9 hPa 0,0 l/m 8,9 km/h (2 Bft) W-SW 247 0 min 0,4 UV-I 8,7 C 18,2 C 20,3 km/h (4 Bft)
03.10.2009 16:20 16,1 C 12,8 C 17,1 C 18,3 C 18,3 C 2,2 C 62 % 61 % 58 % 1010,9 hPa 0,0 l/m 6,9 km/h (2 Bft) W-SW 247 0 min 0,4 UV-I 8,8 C 18,3 C 5,1 km/h (1 Bft)
03.10.2009 16:25 16,1 C 12,8 C 17,1 C 18,4 C 18,4 C 2,3 C 63 % 61 % 61 % 1010,6 hPa 0,0 l/m 6,4 km/h (2 Bft) SO 135 0 min 0,3 UV-I 9,1 C 18,4 C 2,7 km/h (1 Bft)
03.10.2009 16:30 16,1 C 12,9 C 17,1 C 18,6 C 18,6 C 2,5 C 62 % 61 % 66 % 1010,6 hPa 0,0 l/m 6,3 km/h (2 Bft) S 180 0 min 0,3 UV-I 8,8 C 18,6 C 8,0 km/h (2 Bft)
03.10.2009 16:35 16,0 C 12,9 C 17,0 C 18,2 C 18,2 C 2,2 C 62 % 60 % 58 % 1010,6 hPa 0,0 l/m 6,9 km/h (2 Bft) SO 135 0 min 0,2 UV-I 8,7 C 18,2 C 8,7 km/h (2 Bft)
03.10.2009 16:40 16,1 C 12,9 C 16,7 C 17,8 C 17,8 C 1,7 C 63 % 62 % 45 % 1010,6 hPa 0,0 l/m 8,9 km/h (2 Bft) S-SW 202 0 min 0,2 UV-I 9,1 C 17,8 C 9,3 km/h (2 Bft)
03.10.2009 16:45 15,9 C 12,9 C 16,5 C 17,6 C 17,6 C 1,7 C 63 % 63 % 45 % 1010,2 hPa 0,0 l/m 7,1 km/h (2 Bft) S-SW 202 0 min 0,1 UV-I 8,9 C 17,6 C 7,9 km/h (2 Bft)
03.10.2009 16:50 15,8 C 12,9 C 16,3 C 17,0 C 17,0 C 1,2 C 64 % 64 % 32 % 1010,2 hPa 0,0 l/m 6,0 km/h (2 Bft) NW 315 0 min 0,1 UV-I 9,0 C 17,0 C 7,6 km/h (2 Bft)
03.10.2009 16:55 15,7 C 12,9 C 16,1 C 16,7 C 16,7 C 1,0 C 63 % 64 % 26 % 1010,2 hPa 0,0 l/m 5,8 km/h (2 Bft) O-SO 112 0 min 0,1 UV-I 8,7 C 16,7 C 2,6 km/h (1 Bft)
03.10.2009 17:00 15,6 C 12,9 C 15,8 C 16,4 C 16,4 C 0,8 C 63 % 63 % 21 % 1010,2 hPa 0,0 l/m 5,3 km/h (1 Bft) W-SW 247 0 min 0,0 UV-I 8,6 C 16,4 C 14,3 km/h (3 Bft)
03.10.2009 17:10 15,5 C 12,9 C 15,5 C 16,1 C 16,1 C 0,6 C 64 % 66 % 16 % 1010,2 hPa 0,0 l/m 4,2 km/h (1 Bft) S-SW 202 0 min 0,0 UV-I 8,7 C 16,1 C 6,0 km/h (2 Bft)
03.10.2009 17:15 15,4 C 12,9 C 15,5 C 16,1 C 16,1 C 0,7 C 64 % 66 % 18 % 1010,2 hPa 0,0 l/m 4,0 km/h (1 Bft) SW 225 0 min 0,0 UV-I 8,6 C 16,1 C 2,6 km/h (1 Bft)
03.10.2009 17:20 15,5 C 12,9 C 15,3 C 16,0 C 16,0 C 0,5 C 64 % 67 % 13 % 1010,2 hPa 0,0 l/m 4,0 km/h (1 Bft) SW 225 0 min 0,0 UV-I 8,7 C 16,0 C 5,8 km/h (2 Bft)
03.10.2009 17:25 15,5 C 13,0 C 15,2 C 16,0 C 16,0 C 0,5 C 64 % 66 % 13 % 1010,1 hPa 0,0 l/m 3,1 km/h (1 Bft) S-SW 202 0 min 0,0 UV-I 8,7 C 16,0 C 1,8 km/h (1 Bft)
03.10.2009 17:30 15,3 C 13,0 C 15,2 C 15,8 C 15,8 C 0,5 C 65 % 66 % 13 % 1010,1 hPa 0,0 l/m 1,8 km/h (1 Bft) O-SO 112 0 min 0,0 UV-I 8,8 C 15,8 C 3,2 km/h (1 Bft)
03.10.2009 17:35 15,3 C 13,1 C 15,1 C 15,7 C 15,7 C 0,4 C 65 % 67 % 11 % 1010,1 hPa 0,0 l/m 2,1 km/h (1 Bft) SO 135 0 min 0,0 UV-I 8,8 C 15,7 C 2,6 km/h (1 Bft)
03.10.2009 17:40 15,2 C 13,1 C 15,0 C 15,3 C 15,3 C 0,1 C 65 % 67 % 3 % 1010,1 hPa 0,0 l/m 1,9 km/h (1 Bft) S 180 0 min 0,0 UV-I 8,7 C 15,3 C 0,0 km/h (0 Bft)
03.10.2009 17:45 15,1 C 13,1 C 14,9 C 15,1 C 15,1 C 0,0 C 65 % 68 % 0 % 1009,9 hPa 0,0 l/m 1,4 km/h (1 Bft) SW 225 0 min 0,0 UV-I 8,6 C 15,1 C 2,1 km/h (1 Bft)
03.10.2009 17:50 15,1 C 13,1 C 14,8 C 15,0 C 14,9 C 0,0 C 65 % 68 % 0 % 1009,9 hPa 0,0 l/m 1,1 km/h (1 Bft) SW 225 0 min 0,0 UV-I 8,6 C 14,9 C 0,0 km/h (0 Bft)
03.10.2009 17:55 14,9 C 13,1 C 14,7 C 14,9 C 14,9 C 0,0 C 66 % 69 % 0 % 1009,9 hPa 0,0 l/m 1,0 km/h (0 Bft) SW 225 0 min 0,0 UV-I 8,6 C 14,9 C 0,0 km/h (0 Bft)
03.10.2009 18:00 14,9 C 13,1 C 14,7 C 14,8 C 14,7 C 0,0 C 66 % 69 % 0 % 1009,9 hPa 0,0 l/m 1,1 km/h (1 Bft) SO 135 0 min 0,0 UV-I 8,6 C 14,7 C 0,0 km/h (0 Bft)
03.10.2009 18:10 14,8 C 13,1 C 14,5 C 14,6 C 14,3 C 0,0 C 66 % 69 % 0 % 1009,8 hPa 0,0 l/m 1,1 km/h (1 Bft) O-NO 67 0 min 0,0 UV-I 8,5 C 14,3 C 0,0 km/h (0 Bft)
03.10.2009 18:15 14,7 C 13,1 C 14,4 C 14,5 C 14,1 C 0,0 C 66 % 69 % 0 % 1009,8 hPa 0,0 l/m 1,0 km/h (0 Bft) SO 135 0 min 0,0 UV-I 8,4 C 14,1 C 4,5 km/h (1 Bft)
03.10.2009 18:20 14,6 C 13,1 C 14,4 C 14,4 C 14,0 C 0,0 C 66 % 69 % 0 % 1009,8 hPa 0,0 l/m 0,8 km/h (0 Bft) W 270 0 min 0,0 UV-I 8,3 C 14,0 C 1,8 km/h (1 Bft)
03.10.2009 18:25 14,7 C 13,1 C 14,3 C 14,4 C 13,9 C 0,0 C 66 % 69 % 0 % 1009,5 hPa 0,0 l/m 1,1 km/h (1 Bft) SO 135 0 min 0,0 UV-I 8,4 C 13,9 C 5,5 km/h (1 Bft)
03.10.2009 18:30 14,6 C 13,1 C 14,2 C 14,3 C 13,8 C 0,0 C 66 % 69 % 0 % 1009,5 hPa 0,0 l/m 1,6 km/h (1 Bft) S-SO 157 0 min 0,0 UV-I 8,3 C 13,8 C 2,3 km/h (1 Bft)
03.10.2009 18:35 14,5 C 13,1 C 14,3 C 14,2 C 13,7 C 0,0 C 66 % 69 % 0 % 1009,5 hPa 0,0 l/m 1,1 km/h (1 Bft) SW 225 0 min 0,0 UV-I 8,2 C 13,7 C 3,9 km/h (1 Bft)
03.10.2009 18:40 14,4 C 13,2 C 14,0 C 14,1 C 13,5 C 0,0 C 67 % 70 % 0 % 1009,5 hPa 0,0 l/m 0,5 km/h (0 Bft) S 180 0 min 0,0 UV-I 8,4 C 13,5 C 1,9 km/h (1 Bft)
03.10.2009 18:45 14,3 C 13,2 C 13,9 C 14,0 C 13,3 C 0,0 C 67 % 70 % 0 % 1009,2 hPa 0,0 l/m 0,6 km/h (0 Bft) SW 225 0 min 0,0 UV-I 8,3 C 13,3 C 0,0 km/h (0 Bft)
03.10.2009 18:50 14,3 C 13,2 C 13,9 C 13,9 C 13,1 C 0,0 C 67 % 70 % 0 % 1009,2 hPa 0,0 l/m 1,0 km/h (0 Bft) SO 135 0 min 0,0 UV-I 8,3 C 13,1 C 3,2 km/h (1 Bft)
03.10.2009 18:55 14,3 C 13,2 C 13,8 C 13,9 C 13,1 C 0,0 C 67 % 70 % 0 % 1009,2 hPa 0,0 l/m 1,1 km/h (1 Bft) N 360 0 min 0,0 UV-I 8,3 C 13,1 C 0,0 km/h (0 Bft)
03.10.2009 19:00 14,3 C 13,2 C 13,9 C 13,9 C 13,2 C 0,0 C 67 % 70 % 0 % 1009,2 hPa 0,0 l/m 1,6 km/h (1 Bft) S 180 0 min 0,0 UV-I 8,3 C 13,2 C 2,7 km/h (1 Bft)
03.10.2009 19:10 14,0 C 13,2 C 13,7 C 13,7 C 13,2 C 0,0 C 68 % 71 % 0 % 1009,1 hPa 0,0 l/m 1,4 km/h (1 Bft) SO 135 0 min 0,0 UV-I 8,2 C 13,2 C 0,0 km/h (0 Bft)
03.10.2009 19:15 14,1 C 13,2 C 13,7 C 13,8 C 13,1 C 0,0 C 68 % 71 % 0 % 1009,1 hPa 0,0 l/m 1,6 km/h (1 Bft) O-SO 112 0 min 0,0 UV-I 8,3 C 13,1 C 5,6 km/h (1 Bft)
03.10.2009 19:20 13,9 C 13,2 C 13,6 C 13,6 C 13,0 C 0,0 C 68 % 71 % 0 % 1009,1 hPa 0,0 l/m 1,4 km/h (1 Bft) SW 225 0 min 0,0 UV-I 8,1 C 13,0 C 2,1 km/h (1 Bft)
03.10.2009 19:25 13,9 C 13,2 C 13,5 C 13,6 C 13,0 C 0,0 C 68 % 71 % 0 % 1009,0 hPa 0,0 l/m 1,8 km/h (1 Bft) S-SO 157 0 min 0,0 UV-I 8,1 C 13,0 C 2,1 km/h (1 Bft)
03.10.2009 19:30 13,9 C 13,2 C 13,4 C 13,6 C 12,9 C 0,0 C 68 % 72 % 0 % 1009,0 hPa 0,0 l/m 1,4 km/h (1 Bft) S-SW 202 0 min 0,0 UV-I 8,1 C 12,9 C 2,4 km/h (1 Bft)
03.10.2009 19:35 13,8 C 13,2 C 13,5 C 13,5 C 12,9 C 0,0 C 69 % 72 % 0 % 1009,0 hPa 0,0 l/m 1,3 km/h (1 Bft) SW 225 0 min 0,0 UV-I 8,2 C 12,9 C 0,0 km/h (0 Bft)
03.10.2009 19:40 13,7 C 13,2 C 13,3 C 13,4 C 12,8 C 0,0 C 69 % 72 % 0 % 1009,0 hPa 0,0 l/m 1,1 km/h (1 Bft) S-SW 202 0 min 0,0 UV-I 8,1 C 12,8 C 1,6 km/h (1 Bft)
03.10.2009 19:45 13,7 C 13,2 C 13,3 C 13,4 C 12,8 C 0,0 C 69 % 72 % 0 % 1008,9 hPa 0,0 l/m 1,1 km/h (1 Bft) NW 315 0 min 0,0 UV-I 8,1 C 12,8 C 2,7 km/h (1 Bft)
03.10.2009 19:50 13,6 C 13,2 C 13,2 C 13,3 C 12,7 C 0,0 C 69 % 73 % 0 % 1008,9 hPa 0,0 l/m 1,1 km/h (1 Bft) SO 135 0 min 0,0 UV-I 8,0 C 12,7 C 3,4 km/h (1 Bft)
03.10.2009 19:55 13,6 C 13,2 C 13,2 C 13,3 C 12,7 C 0,0 C 69 % 73 % 0 % 1008,9 hPa 0,0 l/m 1,1 km/h (1 Bft) W 270 0 min 0,0 UV-I 8,0 C 12,7 C 0,0 km/h (0 Bft)
03.10.2009 20:00 13,6 C 13,2 C 13,1 C 13,3 C 12,7 C 0,0 C 69 % 73 % 0 % 1008,9 hPa 0,0 l/m 1,4 km/h (1 Bft) O-NO 67 0 min 0,0 UV-I 8,0 C 12,7 C 0,0 km/h (0 Bft)
03.10.2009 20:10 13,5 C 13,2 C 13,1 C 13,2 C 12,7 C 0,0 C 69 % 73 % 0 % 1008,8 hPa 0,0 l/m 1,6 km/h (1 Bft) S-SO 157 0 min 0,0 UV-I 7,9 C 12,7 C 8,9 km/h (2 Bft)
03.10.2009 20:15 13,5 C 13,2 C 13,2 C 13,2 C 12,7 C 0,0 C 69 % 73 % 0 % 1008,8 hPa 0,0 l/m 1,9 km/h (1 Bft) SO 135 0 min 0,0 UV-I 7,9 C 12,7 C 4,5 km/h (1 Bft)
03.10.2009 20:20 13,5 C 13,2 C 13,2 C 13,3 C 12,8 C 0,0 C 69 % 73 % 0 % 1008,8 hPa 0,0 l/m 1,6 km/h (1 Bft) SO 135 0 min 0,0 UV-I 7,9 C 12,8 C 0,0 km/h (0 Bft)
03.10.2009 20:25 13,5 C 13,2 C 13,3 C 13,3 C 12,9 C 0,0 C 69 % 72 % 0 % 1008,6 hPa 0,0 l/m 1,6 km/h (1 Bft) S 180 0 min 0,0 UV-I 7,9 C 12,9 C 9,5 km/h (2 Bft)
03.10.2009 20:30 13,5 C 13,2 C 13,2 C 13,3 C 12,9 C 0,0 C 69 % 72 % 0 % 1008,6 hPa 0,0 l/m 1,4 km/h (1 Bft) S 180 0 min 0,0 UV-I 7,9 C 12,9 C 2,6 km/h (1 Bft)
03.10.2009 20:35 13,5 C 13,2 C 13,3 C 13,3 C 12,9 C 0,0 C 69 % 72 % 0 % 1008,6 hPa 0,0 l/m 1,9 km/h (1 Bft) S-SO 157 0 min 0,0 UV-I 7,9 C 12,9 C 3,5 km/h (1 Bft)
03.10.2009 20:40 13,5 C 13,2 C 13,3 C 13,3 C 13,0 C 0,0 C 68 % 71 % 0 % 1008,6 hPa 0,0 l/m 2,1 km/h (1 Bft) SO 135 0 min 0,0 UV-I 7,7 C 13,0 C 3,1 km/h (1 Bft)
03.10.2009 20:45 13,7 C 13,2 C 13,3 C 13,5 C 13,1 C 0,0 C 68 % 70 % 0 % 1008,4 hPa 0,0 l/m 1,8 km/h (1 Bft) W-SW 247 0 min 0,0 UV-I 7,9 C 13,1 C 0,0 km/h (0 Bft)
03.10.2009 20:50 13,6 C 13,2 C 13,3 C 13,4 C 13,0 C 0,0 C 68 % 71 % 0 % 1008,4 hPa 0,0 l/m 1,4 km/h (1 Bft) SW 225 0 min 0,0 UV-I 7,8 C 13,0 C 0,0 km/h (0 Bft)
03.10.2009 20:55 13,5 C 13,2 C 13,2 C 13,3 C 12,9 C 0,0 C 68 % 72 % 0 % 1008,4 hPa 0,0 l/m 1,1 km/h (1 Bft) N-NO 22 0 min 0,0 UV-I 7,7 C 12,9 C 2,4 km/h (1 Bft)
03.10.2009 21:00 13,6 C 13,2 C 13,2 C 13,4 C 12,9 C 0,0 C 68 % 71 % 0 % 1008,4 hPa 0,0 l/m 1,1 km/h (1 Bft) SW 225 0 min 0,0 UV-I 7,8 C 12,9 C 6,8 km/h (2 Bft)
03.10.2009 21:10 13,6 C 13,2 C 13,3 C 13,4 C 12,9 C 0,0 C 67 % 70 % 0 % 1008,5 hPa 0,0 l/m 1,8 km/h (1 Bft) S 180 0 min 0,0 UV-I 7,6 C 12,9 C 11,9 km/h (2 Bft)
03.10.2009 21:15 13,7 C 13,2 C 13,5 C 13,5 C 13,1 C 0,0 C 67 % 71 % 0 % 1008,5 hPa 0,0 l/m 1,9 km/h (1 Bft) W-SW 247 0 min 0,0 UV-I 7,7 C 13,1 C 0,0 km/h (0 Bft)
03.10.2009 21:20 13,8 C 13,2 C 13,5 C 13,6 C 13,2 C 0,0 C 67 % 69 % 0 % 1008,5 hPa 0,0 l/m 2,9 km/h (1 Bft) S 180 0 min 0,0 UV-I 7,8 C 13,2 C 9,0 km/h (2 Bft)
03.10.2009 21:25 13,8 C 13,2 C 13,5 C 13,6 C 13,3 C 0,0 C 67 % 70 % 0 % 1008,6 hPa 0,0 l/m 2,6 km/h (1 Bft) SO 135 0 min 0,0 UV-I 7,8 C 13,3 C 1,9 km/h (1 Bft)
03.10.2009 21:30 13,7 C 13,2 C 13,5 C 13,6 C 13,3 C 0,0 C 67 % 70 % 0 % 1008,6 hPa 0,0 l/m 2,7 km/h (1 Bft) W 270 0 min 0,0 UV-I 7,7 C 13,3 C 2,1 km/h (1 Bft)
03.10.2009 21:35 13,7 C 13,2 C 13,4 C 13,5 C 13,1 C 0,0 C 67 % 70 % 0 % 1008,6 hPa 0,0 l/m 2,4 km/h (1 Bft) S 180 0 min 0,0 UV-I 7,7 C 13,1 C 10,6 km/h (2 Bft)
03.10.2009 21:40 13,7 C 13,2 C 13,5 C 13,5 C 13,1 C 0,0 C 67 % 71 % 0 % 1008,6 hPa 0,0 l/m 2,9 km/h (1 Bft) W-SW 247 0 min 0,0 UV-I 7,7 C 13,1 C 8,4 km/h (2 Bft)
03.10.2009 21:45 13,7 C 13,2 C 13,5 C 13,5 C 13,2 C 0,0 C 67 % 70 % 0 % 1008,7 hPa 0,0 l/m 4,7 km/h (1 Bft) S 180 0 min 0,0 UV-I 7,7 C 13,2 C 13,7 km/h (3 Bft)
03.10.2009 21:50 13,6 C 13,2 C 13,3 C 13,5 C 13,3 C 0,0 C 67 % 70 % 0 % 1008,7 hPa 0,0 l/m 5,6 km/h (1 Bft) O-NO 67 0 min 0,0 UV-I 7,6 C 13,3 C 5,1 km/h (1 Bft)
03.10.2009 21:55 13,6 C 13,2 C 13,3 C 13,5 C 13,3 C 0,0 C 67 % 70 % 0 % 1008,7 hPa 0,0 l/m 5,0 km/h (1 Bft) SW 225 0 min 0,0 UV-I 7,6 C 13,3 C 3,2 km/h (1 Bft)
03.10.2009 22:00 13,6 C 13,2 C 13,3 C 13,5 C 13,2 C 0,0 C 68 % 70 % 0 % 1008,7 hPa 0,0 l/m 4,7 km/h (1 Bft) S 180 0 min 0,0 UV-I 7,8 C 13,2 C 10,8 km/h (2 Bft)
03.10.2009 22:10 13,6 C 13,2 C 13,5 C 13,5 C 13,2 C 0,0 C 67 % 70 % 0 % 1008,6 hPa 0,0 l/m 6,1 km/h (2 Bft) SO 135 0 min 0,0 UV-I 7,6 C 13,2 C 6,9 km/h (2 Bft)
03.10.2009 22:15 13,6 C 13,2 C 13,5 C 13,5 C 13,3 C 0,0 C 68 % 71 % 0 % 1008,6 hPa 0,0 l/m 5,5 km/h (1 Bft) S 180 0 min 0,0 UV-I 7,8 C 13,3 C 10,1 km/h (2 Bft)
03.10.2009 22:20 13,6 C 13,2 C 13,4 C 13,5 C 13,3 C 0,0 C 67 % 70 % 0 % 1008,6 hPa 0,0 l/m 5,1 km/h (1 Bft) W-SW 247 0 min 0,0 UV-I 7,6 C 13,3 C 10,1 km/h (2 Bft)
03.10.2009 22:25 13,7 C 13,2 C 13,4 C 13,6 C 13,3 C 0,0 C 68 % 70 % 0 % 1008,0 hPa 0,0 l/m 5,5 km/h (1 Bft) S-SW 202 0 min 0,0 UV-I 7,9 C 13,3 C 8,9 km/h (2 Bft)
03.10.2009 22:30 13,6 C 13,3 C 13,3 C 13,5 C 13,3 C 0,0 C 68 % 71 % 0 % 1008,0 hPa 0,0 l/m 5,0 km/h (1 Bft) NO 45 0 min 0,0 UV-I 7,8 C 13,3 C 3,7 km/h (1 Bft)
03.10.2009 22:35 13,6 C 13,3 C 13,3 C 13,5 C 13,3 C 0,0 C 68 % 71 % 0 % 1008,0 hPa 0,0 l/m 5,1 km/h (1 Bft) SW 225 0 min 0,0 UV-I 7,8 C 13,3 C 6,4 km/h (2 Bft)
03.10.2009 22:40 13,5 C 13,3 C 13,2 C 13,4 C 13,3 C 0,0 C 68 % 71 % 0 % 1008,0 hPa 0,0 l/m 5,5 km/h (1 Bft) S-SO 157 0 min 0,0 UV-I 7,7 C 13,3 C 6,0 km/h (2 Bft)
03.10.2009 22:45 13,6 C 13,2 C 13,3 C 13,5 C 13,2 C 0,0 C 68 % 71 % 0 % 1008,1 hPa 0,0 l/m 6,3 km/h (2 Bft) S-SW 202 0 min 0,0 UV-I 7,8 C 13,2 C 12,4 km/h (3 Bft)
03.10.2009 22:50 13,6 C 13,3 C 13,3 C 13,4 C 13,1 C 0,0 C 69 % 71 % 0 % 1008,1 hPa 0,0 l/m 7,2 km/h (2 Bft) SW 225 0 min 0,0 UV-I 8,0 C 13,1 C 9,2 km/h (2 Bft)
03.10.2009 22:55 13,6 C 13,2 C 13,3 C 13,4 C 13,1 C 0,0 C 69 % 72 % 0 % 1008,1 hPa 0,0 l/m 6,8 km/h (2 Bft) S 180 0 min 0,0 UV-I 8,0 C 13,1 C 6,4 km/h (2 Bft)
03.10.2009 23:00 13,5 C 13,2 C 13,2 C 13,4 C 13,1 C 0,0 C 69 % 71 % 0 % 1008,1 hPa 0,0 l/m 6,4 km/h (2 Bft) S 180 0 min 0,0 UV-I 7,9 C 13,1 C 9,8 km/h (2 Bft)
03.10.2009 23:10 13,5 C 13,3 C 13,3 C 13,5 C 13,4 C 0,0 C 69 % 72 % 0 % 1008,4 hPa 0,0 l/m 7,6 km/h (2 Bft) SW 225 0 min 0,0 UV-I 7,9 C 13,4 C 8,0 km/h (2 Bft)
03.10.2009 23:15 13,5 C 13,3 C 13,3 C 13,7 C 13,7 C 0,2 C 69 % 72 % 0 % 1008,4 hPa 0,0 l/m 6,1 km/h (2 Bft) NO 45 0 min 0,0 UV-I 7,9 C 13,7 C 3,1 km/h (1 Bft)
03.10.2009 23:20 13,6 C 13,3 C 13,2 C 13,7 C 13,7 C 0,1 C 69 % 72 % 0 % 1008,4 hPa 0,0 l/m 4,7 km/h (1 Bft) W-SW 247 0 min 0,0 UV-I 8,0 C 13,7 C 5,3 km/h (1 Bft)
03.10.2009 23:25 13,5 C 13,3 C 13,3 C 13,7 C 13,7 C 0,2 C 69 % 72 % 0 % 1008,5 hPa 0,0 l/m 4,2 km/h (1 Bft) W 270 0 min 0,0 UV-I 7,9 C 13,7 C 3,2 km/h (1 Bft)
03.10.2009 23:30 13,6 C 13,3 C 13,3 C 13,7 C 13,7 C 0,1 C 69 % 73 % 0 % 1008,5 hPa 0,0 l/m 4,0 km/h (1 Bft) S-SO 157 0 min 0,0 UV-I 8,0 C 13,7 C 1,9 km/h (1 Bft)
03.10.2009 23:35 13,6 C 13,3 C 13,4 C 13,7 C 13,7 C 0,1 C 69 % 72 % 0 % 1008,5 hPa 0,0 l/m 3,1 km/h (1 Bft) W 270 0 min 0,0 UV-I 8,0 C 13,7 C 4,3 km/h (1 Bft)
03.10.2009 23:40 13,6 C 13,3 C 13,4 C 13,7 C 13,7 C 0,1 C 70 % 73 % 0 % 1008,5 hPa 0,0 l/m 2,3 km/h (1 Bft) W-SW 247 0 min 0,0 UV-I 8,2 C 13,7 C 7,9 km/h (2 Bft)
03.10.2009 23:45 13,5 C 13,3 C 13,3 C 13,6 C 13,6 C 0,1 C 70 % 73 % 0 % 1008,2 hPa 0,0 l/m 2,4 km/h (1 Bft) S-SW 202 0 min 0,0 UV-I 8,1 C 13,6 C 6,4 km/h (2 Bft)
03.10.2009 23:50 13,6 C 13,3 C 13,3 C 13,6 C 13,6 C 0,0 C 70 % 73 % 0 % 1008,2 hPa 0,0 l/m 3,1 km/h (1 Bft) W-SW 247 0 min 0,0 UV-I 8,2 C 13,6 C 5,8 km/h (2 Bft)
03.10.2009 23:55 13,6 C 13,3 C 13,3 C 13,7 C 13,7 C 0,1 C 70 % 73 % 0 % 1008,2 hPa 0,0 l/m 3,9 km/h (1 Bft) S 180 0 min 0,0 UV-I 8,2 C 13,7 C 5,8 km/h (2 Bft)
_ Min-Zeit 07:10 09:45 05:15 06:50 06:40 00:00 15:20 15:35 00:00 22:25 - 02:40 - - - 00:00 07:10 06:40 02:15
Minimum _ 7,4 C 12,2 C 6,9 C 6,7 C 5,2 C 0,0 C 61 % 58 % 0 % 1008,0 hPa - 0,0 km/h (0 Bft) - - - 0,0 UV-I 5,4 C 5,2 C 0,0 km/h (0 Bft)
_ Max-Zeit 16:20 22:30 15:40 15:10 15:10 15:00 05:40 05:45 14:15 01:45 00:00 15:50 - - 14:10 13:00 14:45 15:10 15:20
Maximum _ 16,1 C 13,3 C 18,1 C 20,2 C 20,2 C 4,5 C 88 % 92 % 100 % 1017,1 hPa 0,0 l/m 12,9 km/h
S (3 Bft)
- - 10 min 1,2 UV-I 9,1 C 20,2 C 29,0 km/h
W-SW (5 Bft)
Durchschnitt _ 11,8 C 12,8 C 11,6 C 12,2 C 11,7 C 0,7 C 76 % 78 % 19 % 1013,0 hPa #0,0 l/m 3,4 km/h (1 Bft) S - #1:35 h 0,7 UV-I 7,5 C 11,7 C 5,2 km/h (1 Bft)
2013 www.wetterstation-wechselburg.de